Погода в Анбу

Китай     23°27′23″N   116°40′36″E
темп.,
°C
ветер,
м/с
пор.,
м/с
влажн.,
%
обл.,
%
осадки,
мм/ч
давл.,
гПа
погр.,
м
9 марта, вт
вт923:00+17всв47780 0.0 1022440
02:00+16всв24780 0.0 1020327
05:00+16всв22780 0.0 1020272
08:00+17всв23730 0.0 1021431
11:00+21в32604 0.0 1022658
14:00+22вюв43582 0.0 1019495
17:00+20вюв57690 0.0 1018343
20:00+18в47730 0.0 1020384
10 марта, ср
ср1023:00+18в58750 0.0 1022385
02:00+18всв47720 0.0 1021394
05:00+17всв357236 0.0 1021321
08:00+18всв686523 0.0 1022482
11:00+21в68520 0.0 1023834
14:00+22в810530 0.0 1020657
17:00+20в913620 0.0 1020492
20:00+18в712690 0.0 1021525
11 марта, чт
чт1123:00+17всв610700 0.0 1023501
02:00+17всв46690 0.0 1022390
05:00+16всв346924 0.0 1021354
08:00+17всв236515 0.0 1023438
11:00+21в22510 0.0 1023647
14:00+23вюв33480 0.0 1020650
17:00+21вюв55610 0.0 1018384
20:00+19в45720 0.0 1020397
12 марта, пт
пт1223:00+18в35770 0.0 1021403
02:00+18в24773 0.0 1020337
05:00+17всв127635 0.0 1020296
08:00+18ссв127017 0.0 1021344
11:00+22в23560 0.0 1021659
14:00+24вюв43540 0.0 1018649
17:00+22вюв57650 0.0 1017423
20:00+19в610780 0.0 1019497
13 марта, сб
сб1323:00+19в610760 0.0 1020530
02:00+19всв35770 0.0 1019348
05:00+18всв247719 0.0 1019425
08:00+19в467544 0.0 1021539
11:00+21в446556 0.0 1021748
14:00+21в336475 0.0 1018677
17:00+21вюв56694 0.0 1016391
20:00+18в69782 0.0 1018461